| time (UTC) | temp C | wind direction | speed KPH | gust KPH | rain 1hr cm | rain 24hr cm | rain mn cm | humidity % | barometer mb |
| 20260905201604 | 18 | 13 | 8.0 | 19.3 | 0.00 | 0.00 | 0.00 | 52 | 1015.7 |
| 20260905200048 | 17 | 79 | 9.7 | 12.9 | 0.00 | 0.00 | 0.00 | 53 | 1015.9 |
| 20260905194546 | 18 | 63 | 8.0 | 14.5 | 0.00 | 0.00 | 0.00 | 52 | 1015.8 |
| 20260905193056 | 18 | 357 | 3.2 | 8.0 | 0.00 | 0.00 | 0.00 | 52 | 1015.7 |
| 20260905191543 | 17 | 30 | 8.0 | 12.9 | 0.00 | 0.00 | 0.00 | 54 | 1015.8 |
| 20260905190043 | 17 | 356 | 1.6 | 9.7 | 0.00 | 0.00 | 0.00 | 54 | 1016.3 |
| 20260905184544 | 17 | 266 | 0.0 | 6.4 | 0.00 | 0.00 | 0.00 | 55 | 1016.4 |
| 20260905183039 | 16 | 326 | 3.2 | 9.7 | 0.00 | 0.00 | 0.00 | 58 | 1016.2 |
| 20260905181544 | 16 | 313 | 0.0 | 4.8 | 0.00 | 0.00 | 0.00 | 58 | 1016.6 |
| 20260905180040 | 16 | 109 | 1.6 | 6.4 | 0.00 | 0.00 | 0.00 | 59 | 1016.8 |
| 20260905174534 | 15 | 271 | 4.8 | 9.7 | 0.00 | 0.00 | 0.00 | 59 | 1016.9 |
| 20260905173032 | 16 | 243 | 4.8 | 9.7 | 0.00 | 0.00 | 0.00 | 62 | 1016.9 |
| 20260905171533 | 15 | 271 | 1.6 | 8.0 | 0.00 | 0.00 | 0.00 | 63 | 1016.9 |
| 20260905170028 | 15 | 262 | 4.8 | 8.0 | 0.00 | 0.00 | 0.00 | 64 | 1016.9 |
| 20260905164525 | 14 | 240 | 3.2 | 6.4 | 0.00 | 0.00 | 0.00 | 72 | 1016.7 |
| 20260905163021 | 13 | 203 | 3.2 | 8.0 | 0.00 | 0.00 | 0.00 | 76 | 1016.7 |
| 20260905161518 | 13 | 194 | 4.8 | 9.7 | 0.00 | 0.00 | 0.00 | 76 | 1016.7 |
| 20260905160016 | 12 | 237 | 1.6 | 6.4 | 0.00 | 0.00 | 0.00 | 79 | 1016.6 |
| 20260905154620 | 12 | 204 | 3.2 | 8.0 | 0.00 | 0.00 | 0.00 | 80 | 1016.5 |
| 20260905153014 | 12 | 240 | 0.0 | 3.2 | 0.00 | 0.00 | 0.00 | 80 | 1016.6 |
| 20260905151514 | 12 | 134 | 0.0 | 0.0 | 0.00 | 0.00 | 0.00 | 80 | 1016.7 |
| 20260905150013 | 12 | 134 | 0.0 | 1.6 | 0.00 | 0.00 | 0.00 | 79 | 1016.5 |
| 20260905144512 | 11 | 151 | 3.2 | 6.4 | 0.00 | 0.00 | 0.00 | 82 | 1016.7 |
| 20260905143017 | 10 | 113 | 0.0 | 3.2 | 0.00 | 0.00 | 0.00 | 82 | 1016.5 |
| 20260905141509 | 10 | 113 | 0.0 | 0.0 | 0.00 | 0.00 | 0.00 | 83 | 1016.3 |
| 20260905140009 | 10 | 113 | 0.0 | 3.2 | 0.00 | 0.00 | 0.00 | 83 | 1016.3 |
| 20260905134505 | 10 | 113 | 0.0 | 0.0 | 0.00 | 0.00 | 0.00 | 83 | 1016.3 |
| 20260905133004 | 10 | 113 | 1.6 | 3.2 | 0.00 | 0.00 | 0.00 | 84 | 1016.1 |
| 20260905131504 | 10 | 113 | 0.0 | 6.4 | 0.00 | 0.00 | 0.00 | 83 | 1015.9 |
| 20260905130001 | 10 | 310 | 0.0 | 3.2 | 0.00 | 0.00 | 0.00 | 82 | 1015.9 |
| 20260905124604 | 10 | 320 | 0.0 | 4.8 | 0.00 | 0.00 | 0.00 | 81 | 1015.8 |
| 20260905123100 | 11 | 193 | 6.4 | 9.7 | 0.00 | 0.00 | 0.00 | 78 | 1016.0 |
| 20260905121600 | 12 | 182 | 6.4 | 9.7 | 0.00 | 0.00 | 0.00 | 74 | 1016.0 |
| 20260905120057 | 11 | 156 | 4.8 | 12.9 | 0.00 | 0.00 | 0.00 | 78 | 1016.0 |
| 20260905114556 | 11 | 139 | 6.4 | 11.3 | 0.00 | 0.00 | 0.00 | 80 | 1016.0 |
| 20260905113055 | 12 | 137 | 4.8 | 11.3 | 0.00 | 0.00 | 0.00 | 76 | 1015.7 |
| 20260905111605 | 11 | 145 | 8.0 | 12.9 | 0.00 | 0.00 | 0.00 | 76 | 1015.8 |
| 20260905110058 | 11 | 172 | 4.8 | 6.4 | 0.00 | 0.00 | 0.00 | 80 | 1015.8 |
| 20260905104609 | 11 | 180 | 4.8 | 6.4 | 0.00 | 0.00 | 0.00 | 77 | 1015.4 |
| 20260905103049 | 11 | 141 | 0.0 | 1.6 | 0.00 | 0.00 | 0.00 | 75 | 1015.2 |
| 20260905101551 | 11 | 141 | 0.0 | 3.2 | 0.00 | 0.00 | 0.00 | 76 | 1015.2 |
| 20260905100047 | 11 | 139 | 3.2 | 4.8 | 0.00 | 0.00 | 0.00 | 77 | 1015.3 |
| 20260905094546 | 11 | 139 | 1.6 | 6.4 | 0.00 | 0.00 | 0.00 | 75 | 1015.0 |
| 20260905093045 | 11 | 129 | 1.6 | 8.0 | 0.00 | 0.00 | 0.00 | 75 | 1015.0 |
| 20260905091604 | 11 | 108 | 0.0 | 6.4 | 0.00 | 0.00 | 0.00 | 74 | 1015.1 |
| 20260905090044 | 12 | 108 | 4.8 | 6.4 | 0.00 | 0.00 | 0.00 | 71 | 1015.0 |
| 20260905084604 | 12 | 104 | 3.2 | 8.0 | 0.00 | 0.00 | 0.00 | 72 | 1015.1 |
| 20260905083141 | 12 | 248 | 0.0 | 6.4 | 0.00 | 0.00 | 0.00 | 70 | 1015.0 |
| 20260905081537 | 12 | 277 | 3.2 | 11.3 | 0.00 | 0.00 | 0.00 | 71 | 1015.1 |
| 20260905080040 | 10 | 205 | 0.0 | 3.2 | 0.00 | 0.00 | 0.00 | 78 | 1015.0 |
| 20260905074532 | 10 | 205 | 1.6 | 11.3 | 0.00 | 0.00 | 0.00 | 78 | 1014.9 |
| 20260905073033 | 10 | 18 | 6.4 | 9.7 | 0.00 | 0.00 | 0.00 | 76 | 1014.1 |
| 20260905071526 | 11 | 139 | 0.0 | 6.4 | 0.00 | 0.00 | 0.00 | 73 | 1014.0 |
| 20260905070042 | 10 | 139 | 1.6 | 6.4 | 0.00 | 0.00 | 0.00 | 76 | 1013.9 |
| 20260905064522 | 10 | 148 | 3.2 | 6.4 | 0.00 | 0.00 | 0.00 | 78 | 1013.9 |
| 20260905063020 | 9 | 162 | 3.2 | 6.4 | 0.00 | 0.00 | 0.00 | 77 | 1013.8 |
| 20260905061518 | 9 | 204 | 3.2 | 6.4 | 0.00 | 0.00 | 0.00 | 76 | 1013.6 |
| 20260905060018 | 10 | 204 | 1.6 | 4.8 | 0.00 | 0.00 | 0.00 | 75 | 1013.5 |
| 20260905054538 | 10 | 204 | 3.2 | 4.8 | 0.00 | 0.00 | 0.00 | 74 | 1013.3 |
| 20260905053016 | 10 | 204 | 1.6 | 6.4 | 0.00 | 0.00 | 0.00 | 73 | 1013.4 |
| 20260905051533 | 10 | 145 | 3.2 | 8.0 | 0.00 | 0.00 | 0.00 | 73 | 1013.3 |
| 20260905050014 | 10 | 152 | 0.0 | 3.2 | 0.00 | 0.00 | 0.00 | 70 | 1013.2 |
| 20260905044518 | 11 | 152 | 0.0 | 3.2 | 0.00 | 0.00 | 0.00 | 70 | 1013.2 |
| 20260905043012 | 12 | 155 | 0.0 | 9.7 | 0.00 | 0.00 | 0.00 | 66 | 1013.2 |
| 20260905041512 | 13 | 296 | 3.2 | 6.4 | 0.00 | 0.00 | 0.00 | 64 | 1013.2 |
| 20260905040011 | 13 | 250 | 0.0 | 3.2 | 0.00 | 0.00 | 0.00 | 60 | 1013.3 |
| 20260905034509 | 15 | 293 | 4.8 | 12.9 | 0.00 | 0.00 | 0.00 | 54 | 1013.1 |
| 20260905033018 | 14 | 68 | 6.4 | 9.7 | 0.00 | 0.00 | 0.00 | 56 | 1012.9 |
| 20260905031511 | 14 | 71 | 3.2 | 6.4 | 0.00 | 0.00 | 0.00 | 57 | 1012.7 |
| 20260905030008 | 15 | 332 | 3.2 | 6.4 | 0.00 | 0.00 | 0.00 | 53 | 1012.8 |
| 20260905024507 | 15 | 54 | 0.0 | 4.8 | 0.00 | 0.00 | 0.00 | 53 | 1012.7 |
| 20260905023007 | 16 | 59 | 8.0 | 14.5 | 0.00 | 0.00 | 0.00 | 48 | 1012.6 |
| 20260905021506 | 17 | 77 | 6.4 | 12.9 | 0.00 | 0.00 | 0.00 | 47 | 1012.5 |
| 20260905020011 | 18 | 56 | 8.0 | 17.7 | 0.00 | 0.00 | 0.00 | 44 | 1012.5 |
| 20260905014504 | 18 | 44 | 11.3 | 19.3 | 0.00 | 0.00 | 0.00 | 44 | 1012.5 |
| 20260905013004 | 18 | 64 | 8.0 | 16.1 | 0.00 | 0.00 | 0.00 | 44 | 1012.5 |
| 20260905011506 | 18 | 92 | 11.3 | 20.9 | 0.00 | 0.00 | 0.00 | 45 | 1012.4 |
| 20260905010003 | 18 | 81 | 16.1 | 32.2 | 0.00 | 0.00 | 0.00 | 45 | 1012.4 |
| 20260905004502 | 19 | 106 | 20.9 | 32.2 | 0.00 | 0.00 | 0.00 | 42 | 1012.1 |
| 20260905001559 | 21 | 4 | 12.9 | 25.7 | 0.00 | 0.00 | 0.00 | 37 | 1011.9 |
| 20260905000058 | 20 | 1 | 8.0 | 16.1 | 0.00 | 0.00 | 0.00 | 37 | 1011.8 |
| 20260904234556 | 20 | 345 | 6.4 | 17.7 | 0.00 | 0.00 | 0.00 | 37 | 1011.9 |
| 20260904233056 | 20 | 41 | 4.8 | 12.9 | 0.00 | 0.00 | 0.00 | 37 | 1011.9 |
| 20260904231555 | 20 | 34 | 3.2 | 16.1 | 0.00 | 0.00 | 0.00 | 40 | 1012.0 |
| 20260904230104 | 20 | 342 | 6.4 | 16.1 | 0.00 | 0.00 | 0.00 | 40 | 1012.2 |
| 20260904224607 | 20 | 30 | 3.2 | 9.7 | 0.00 | 0.00 | 0.00 | 38 | 1012.2 |
| 20260904223053 | 20 | 260 | 1.6 | 4.8 | 0.00 | 0.00 | 0.00 | 37 | 1012.2 |
| 20260904221552 | 21 | 13 | 1.6 | 9.7 | 0.00 | 0.00 | 0.00 | 36 | 1012.2 |
| 20260904220051 | 20 | 14 | 12.9 | 19.3 | 0.00 | 0.00 | 0.00 | 37 | 1012.3 |
| 20260904214555 | 20 | 308 | 8.0 | 14.5 | 0.00 | 0.00 | 0.00 | 39 | 1012.3 |
| 20260904213049 | 20 | 8 | 11.3 | 14.5 | 0.00 | 0.00 | 0.00 | 38 | 1012.3 |
| 20260904211552 | 20 | 23 | 8.0 | 16.1 | 0.00 | 0.00 | 0.00 | 38 | 1012.3 |
| 20260904210048 | 20 | 298 | 3.2 | 9.7 | 0.00 | 0.00 | 0.00 | 40 | 1012.1 |
| 20260904204543 | 19 | 292 | 4.8 | 11.3 | 0.00 | 0.00 | 0.00 | 41 | 1012.1 |
| 20260904203046 | 19 | 311 | 6.4 | 17.7 | 0.00 | 0.00 | 0.00 | 41 | 1012.2 |